When you browse on this site, cookies collect data to enhance your experience and personalize the content and advertising you see.
Visit our Privacy Policy to learn more. By continuing to use the site, you agree to this use of cookies and data.
  • En España
  • Lista de países
  • Para 7 días
  • Temperatura del agua
  • El tiempo en el mapa
  • Informadores
  • user-avatar
    Iniciar sesión

    Tiempo cada hora Jarim

    Hoy, 5 Junio, Viernes

    Tiempo Temperatura Precipitaciones Viento Presión Humedad
    00:00 +13°C° 0.3 mm 3 mps 552 mmHg 78%
    01:00 +14°C° 0 mm 2 mps 552 mmHg 79%
    02:00 +14°C° 0 mm 2 mps 551 mmHg 80%
    03:00 +14°C° 0 mm 1 mps 551 mmHg 81%
    04:00 +14°C° 0 mm 1 mps 551 mmHg 82%
    05:00 +14°C° 0 mm 2 mps 552 mmHg 83%
    06:00 +13°C° 0 mm 2 mps 552 mmHg 85%
    07:00 +15°C° 0 mm 2 mps 553 mmHg 76%
    08:00 +16°C° 0 mm 3 mps 554 mmHg 67%
    09:00 +17°C° 0 mm 3 mps 554 mmHg 62%
    10:00 +18°C° 0.4 mm 4 mps 555 mmHg 59%
    11:00 +19°C° 0.4 mm 4 mps 555 mmHg 56%
    12:00 +20°C° 0.4 mm 5 mps 556 mmHg 53%
    13:00 +20°C° 0.6 mm 5 mps 555 mmHg 52%
    14:00 +20°C° 0.6 mm 5 mps 554 mmHg 51%
    15:00 +20°C° 0.6 mm 5 mps 554 mmHg 51%
    16:00 +20°C° 0.5 mm 5 mps 554 mmHg 52%
    17:00 +19°C° 0.5 mm 5 mps 554 mmHg 54%
    18:00 +17°C° 0.5 mm 5 mps 554 mmHg 56%
    19:00 +17°C° 0.1 mm 5 mps 554 mmHg 57%
    20:00 +17°C° 0.1 mm 5 mps 554 mmHg 58%
    21:00 +16°C° 0.1 mm 5 mps 554 mmHg 59%
    22:00 +16°C° 0 mm 5 mps 553 mmHg 61%
    23:00 +17°C° 0 mm 4 mps 553 mmHg 63%

    Mañana, 6 Junio, Sábado

    Tiempo Temperatura Precipitaciones Viento Presión Humedad
    00:00 +16°C° 0 mm 3 mps 553 mmHg 64%
    01:00 +16°C° 0 mm 3 mps 553 mmHg 65%
    02:00 +16°C° 0 mm 2 mps 552 mmHg 66%
    03:00 +15°C° 0 mm 2 mps 552 mmHg 67%
    04:00 +15°C° 0 mm 2 mps 552 mmHg 67%
    05:00 +15°C° 0 mm 2 mps 553 mmHg 67%
    06:00 +15°C° 0 mm 2 mps 553 mmHg 66%
    07:00 +17°C° 0 mm 3 mps 554 mmHg 54%
    08:00 +19°C° 0 mm 5 mps 555 mmHg 42%
    09:00 +20°C° 0 mm 6 mps 556 mmHg 31%
    10:00 +21°C° 0 mm 6 mps 556 mmHg 30%
    11:00 +22°C° 0 mm 6 mps 556 mmHg 29%
    12:00 +23°C° 0 mm 6 mps 556 mmHg 29%
    13:00 +23°C° 0 mm 6 mps 556 mmHg 28%
    14:00 +23°C° 0 mm 6 mps 556 mmHg 26%
    15:00 +25°C° 0 mm 5 mps 556 mmHg 25%
    16:00 +23°C° 0.1 mm 5 mps 555 mmHg 29%
    17:00 +22°C° 0.1 mm 4 mps 555 mmHg 33%
    18:00 +21°C° 0.1 mm 4 mps 554 mmHg 37%
    19:00 +20°C° 0.1 mm 3 mps 554 mmHg 42%
    20:00 +19°C° 0.1 mm 2 mps 554 mmHg 46%
    21:00 +19°C° 0.1 mm 1 mps 554 mmHg 51%
    22:00 +19°C° 0 mm 1 mps 553 mmHg 52%
    23:00 +19°C° 0 mm 1 mps 553 mmHg 53%

    Pasado mañana, 7 Junio, Domingo

    Tiempo Temperatura Precipitaciones Viento Presión Humedad
    00:00 +18°C° 0 mm 1 mps 553 mmHg 54%
    01:00 +18°C° 0 mm 1 mps 552 mmHg 51%
    02:00 +18°C° 0 mm 1 mps 552 mmHg 49%
    03:00 +16°C° 0 mm 1 mps 551 mmHg 46%
    04:00 +15°C° 0 mm 0 mps 551 mmHg 47%
    05:00 +15°C° 0 mm 0 mps 551 mmHg 47%
    06:00 +15°C° 0 mm 0 mps 551 mmHg 48%
    07:00 +19°C° 0 mm 1 mps 553 mmHg 41%
    08:00 +21°C° 0 mm 1 mps 554 mmHg 34%
    09:00 +21°C° 0 mm 2 mps 555 mmHg 27%
    10:00 +22°C° 0 mm 3 mps 556 mmHg 25%
    11:00 +24°C° 0 mm 3 mps 556 mmHg 24%
    12:00 +25°C° 0 mm 4 mps 556 mmHg 23%
    13:00 +23°C° 0 mm 4 mps 555 mmHg 24%
    14:00 +23°C° 0 mm 4 mps 555 mmHg 26%
    15:00 +23°C° 0 mm 4 mps 554 mmHg 28%
    16:00 +22°C° 0.7 mm 4 mps 554 mmHg 33%
    17:00 +21°C° 0.7 mm 4 mps 553 mmHg 37%
    18:00 +20°C° 0.7 mm 4 mps 553 mmHg 41%
    19:00 +20°C° 0.3 mm 3 mps 553 mmHg 46%
    20:00 +19°C° 0.3 mm 2 mps 553 mmHg 51%
    21:00 +19°C° 0.3 mm 1 mps 553 mmHg 56%
    22:00 +19°C° 0 mm 1 mps 552 mmHg 57%
    23:00 +18°C° 0 mm 1 mps 552 mmHg 57%

    8 Junio, Lunes

    Tiempo Temperatura Precipitaciones Viento Presión Humedad
    00:00 +18°C° 0 mm 1 mps 551 mmHg 58%
    01:00 +18°C° 0 mm 1 mps 551 mmHg 57%
    02:00 +16°C° 0 mm 1 mps 551 mmHg 57%
    03:00 +16°C° 0 mm 1 mps 550 mmHg 56%
    04:00 +16°C° 0 mm 1 mps 551 mmHg 56%
    05:00 +16°C° 0 mm 1 mps 551 mmHg 56%
    06:00 +16°C° 0 mm 1 mps 551 mmHg 56%
    07:00 +18°C° 0 mm 2 mps 552 mmHg 46%
    08:00 +20°C° 0 mm 2 mps 554 mmHg 35%
    09:00 +22°C° 0 mm 3 mps 555 mmHg 25%
    10:00 +24°C° 0 mm 3 mps 555 mmHg 23%
    11:00 +25°C° 0 mm 4 mps 555 mmHg 20%
    12:00 +26°C° 0 mm 5 mps 556 mmHg 18%
    13:00 +26°C° 0 mm 5 mps 555 mmHg 19%
    14:00 +26°C° 0 mm 4 mps 555 mmHg 20%
    15:00 +26°C° 0 mm 4 mps 554 mmHg 20%
    16:00 +25°C° 0 mm 4 mps 554 mmHg 24%
    17:00 +24°C° 0 mm 3 mps 554 mmHg 28%
    18:00 +22°C° 0 mm 3 mps 553 mmHg 32%
    19:00 +21°C° 0.1 mm 2 mps 553 mmHg 36%
    20:00 +20°C° 0.1 mm 2 mps 553 mmHg 39%
    21:00 +20°C° 0.1 mm 1 mps 553 mmHg 43%
    22:00 +20°C° 0 mm 1 mps 552 mmHg 45%
    23:00 +19°C° 0 mm 1 mps 552 mmHg 46%

    9 Junio, Martes

    Tiempo Temperatura Precipitaciones Viento Presión Humedad
    00:00 +19°C° 0 mm 1 mps 552 mmHg 47%
    01:00 +19°C° 0 mm 1 mps 551 mmHg 47%
    02:00 +18°C° 0 mm 1 mps 551 mmHg 47%
    03:00 +18°C° 0 mm 1 mps 551 mmHg 47%
    04:00 +18°C° 0 mm 1 mps 551 mmHg 47%
    05:00 +18°C° 0 mm 1 mps 551 mmHg 47%
    06:00 +18°C° 0 mm 1 mps 551 mmHg 47%
    07:00 +20°C° 0 mm 1 mps 553 mmHg 38%
    08:00 +21°C° 0 mm 2 mps 554 mmHg 29%
    09:00 +24°C° 0 mm 2 mps 555 mmHg 20%
    10:00 +24°C° 0 mm 2 mps 555 mmHg 19%
    11:00 +25°C° 0 mm 3 mps 556 mmHg 18%
    12:00 +26°C° 0 mm 3 mps 556 mmHg 17%
    13:00 +26°C° 0 mm 4 mps 555 mmHg 18%
    14:00 +26°C° 0 mm 4 mps 555 mmHg 19%
    15:00 +26°C° 0 mm 4 mps 555 mmHg 20%
    16:00 +25°C° 0.1 mm 4 mps 554 mmHg 25%
    17:00 +23°C° 0.1 mm 4 mps 554 mmHg 29%
    18:00 +22°C° 0.1 mm 4 mps 553 mmHg 33%
    19:00 +21°C° 0 mm 3 mps 553 mmHg 39%
    20:00 +20°C° 0 mm 2 mps 553 mmHg 44%
    21:00 +20°C° 0 mm 1 mps 553 mmHg 50%
    22:00 +19°C° 0 mm 1 mps 552 mmHg 52%
    23:00 +19°C° 0 mm 1 mps 552 mmHg 55%

    10 Junio, Miércoles

    Tiempo Temperatura Precipitaciones Viento Presión Humedad
    00:00 +18°C° 0 mm 1 mps 551 mmHg 58%
    01:00 +18°C° 0 mm 1 mps 551 mmHg 57%
    02:00 +18°C° 0 mm 1 mps 551 mmHg 56%
    03:00 +18°C° 0 mm 1 mps 551 mmHg 54%
    04:00 +18°C° 0 mm 1 mps 551 mmHg 53%
    05:00 +16°C° 0 mm 1 mps 551 mmHg 52%
    06:00 +16°C° 0 mm 1 mps 551 mmHg 51%
    07:00 +19°C° 0 mm 2 mps 553 mmHg 40%
    08:00 +21°C° 0 mm 3 mps 554 mmHg 29%
    09:00 +24°C° 0 mm 3 mps 555 mmHg 19%
    10:00 +25°C° 0 mm 4 mps 556 mmHg 17%
    11:00 +26°C° 0 mm 5 mps 556 mmHg 15%
    12:00 +27°C° 0 mm 6 mps 556 mmHg 13%
    13:00 +27°C° 0 mm 6 mps 556 mmHg 14%
    14:00 +27°C° 0 mm 6 mps 556 mmHg 14%
    15:00 +27°C° 0 mm 6 mps 555 mmHg 15%
    16:00 +26°C° 0 mm 5 mps 555 mmHg 18%
    17:00 +25°C° 0 mm 4 mps 554 mmHg 21%
    18:00 +24°C° 0 mm 3 mps 554 mmHg 25%
    19:00 +23°C° 0.1 mm 2 mps 554 mmHg 32%
    20:00 +21°C° 0.1 mm 2 mps 553 mmHg 40%
    21:00 +21°C° 0.1 mm 1 mps 553 mmHg 48%
    22:00 +20°C° 0 mm 1 mps 552 mmHg 50%
    23:00 +20°C° 0 mm 1 mps 552 mmHg 52%
    Mostrar más